Showing default

TIANHUI 2-01A, 44207

Orbit data source: Space-Track

TIANHUI 2-01A, 44207 is a payload satellite owned by G. Cehui dili (CN) in SSO that was launched on Mon, 29 Apr 2019 UTC via a CHANG ZHENG 4B launch vehicle from the Taiyaun Space Center, China (TSC). Payload-class satellites include a variety of spacecraft equipped with specific instruments for various scientific and technological missions. These include communications satellites like Starlink; space stations such as the ISS; scientific satellites like the Hubble; Earth observation satellites from companies like Planet Labs, Umbra, and HawkEye 360; GPS; miniature CubeSats for education and research; and military/defense satellites.

Loading next visibility...
Identifier
44207, 2019-024A
Orbit
SSO
Country
Flag of CNCN / PRC
Related business
Manufacturer
SAST
Mission
Operational Civil Radar Imaging
Bus & Motor
CAST-2000?, Unknown motor
Mass
~1,000 kg wet, ~1,000 kg dry
Launch date (UTC)
2019-04-29 (6 years ago)
Launch vehicle
CHANG ZHENG 4B
Launch site
Taiyaun Space Center, China (TSC)
Object type
Payload
Rocket body
Debris
Shape & HBR
Box + 2 Pan, 1.5 m
Radar Cross Section
2.045 m², Large (>1 m²)

Expand to show TLE details & history
Last TLE update: 2 days ago

TLE from 2 days ago
0 TIANHUI 2-01A
1 44207U 19024A   25258.78056284  .00002007  00000-0  10577-3 0  9997
2 44207  97.4791 261.4245 0001073  94.3510 265.7846 15.16739623 60549
Epoch: 2025-09-15T18:44Z
TLE epoch observation values (Epoch: 2025-09-15T18:44:00.629Z)
Latitude
0.00001°
Longitude
-14.55842°
Altitude
518.841 km
Speed
7.604 km/s
True Right ascension
17h 25m 41s
True Declination
0° 00' 00"
Sunlit
Object was in daylight at epoch
Visualization orbit readout
Latitude
Unknown
Longitude
Unknown
Altitude
Unknown
Speed
Unknown
Apparent Right ascension
Unknown
Apparent Declination
Unknown
Sunlit
N/A
Visualization observer readout
Local Sidereal Time
07:16:21
Azimuth
Unknown
Elevation
Unknown
Doppler factor
Unknown
Orbital elements
Apogee altitude
513.415 km
Perigee altitude
511.936 km
Semi-major axis
6,890.813 km
Eccentricity
0.00011
Inclination
97.4791°
RAAN
261.4245°
Arg. of periapsis
94.351°
True anomaly
265.77234°
Mean anomaly
265.7846°
Eccentric anomaly
265.77847°
Mean motion
3.79435 °/min
Orbital period
94.88 mins
BSTAR
0.00010577
Loading maneuver chart data...
Computing Atmospheric mass density...
Loading historical data...
Loading historical data...
Loading historical data...
Loading historical data...
Loading historical data...
Loading historical data...
Loading historical data...

Documentation

Showing up to 5 results
|